This is the latest recevied weather packets stored in our database for station/object OE9XVI-6. If no packets are shown the sender has not sent any weather packets the latest 10 day(s).
| Time | Temp. | Humidity | Pressure | Rain* | Wind** | Luminosity | Snow |
|---|---|---|---|---|---|---|---|
| 1777558027 | 17.22° C | 41% | 1023.3 hPa | 0 mm | - | - | - |
| 1777557427 | 17.22° C | 45% | 1023.3 hPa | 0 mm | - | - | - |
| 1777556827 | 16.11° C | 47% | 1023.2 hPa | 0 mm | - | - | - |
| 1777556227 | 14.44° C | 49% | 1023.1 hPa | 0 mm | - | - | - |
| 1777555627 | 14.44° C | 50% | 1023.1 hPa | 0 mm | - | - | - |
| 1777555027 | 14.44° C | 53% | 1023.2 hPa | 0 mm | - | - | - |
| 1777554427 | 13.33° C | 55% | 1023.3 hPa | 0 mm | - | - | - |
| 1777553827 | 12.78° C | 56% | 1023.3 hPa | 0 mm | - | - | - |
| 1777553227 | 12.22° C | 58% | 1023.3 hPa | 0 mm | - | - | - |
| 1777552627 | 11.67° C | 60% | 1023.3 hPa | 0 mm | - | - | - |
| 1777552027 | 11.67° C | 63% | 1023.4 hPa | 0 mm | - | - | - |
| 1777551427 | 11.11° C | 62% | 1023.3 hPa | 0 mm | - | - | - |
| 1777550827 | 10.56° C | 63% | 1023.4 hPa | 0 mm | - | - | - |
| 1777550227 | 10° C | 65% | 1023.3 hPa | 0 mm | - | - | - |
| 1777549627 | 10° C | 64% | 1023.3 hPa | 0 mm | - | - | - |
| 1777549027 | 9.44° C | 65% | 1023.4 hPa | 0 mm | - | - | - |
| 1777548427 | 9.44° C | 66% | 1023.5 hPa | 0 mm | - | - | - |
| 1777547827 | 9.44° C | 65% | 1023.4 hPa | 0 mm | - | - | - |
| 1777547227 | 9.44° C | 67% | 1023.4 hPa | 0 mm | - | - | - |
| 1777546627 | 8.89° C | 66% | 1023.3 hPa | 0 mm | - | - | - |
| 1777546027 | 8.89° C | 68% | 1023.3 hPa | 0 mm | - | - | - |
| 1777545427 | 9.44° C | 68% | 1023.3 hPa | 0 mm | - | - | - |
| 1777544827 | 10° C | 65% | 1023.3 hPa | 0 mm | - | - | - |
| 1777544228 | 10° C | 67% | 1023.3 hPa | 0 mm | - | - | - |
| 1777543628 | 10° C | 67% | 1023.3 hPa | 0 mm | - | - | - |
* Rain latest hour (hover to see other rain measurements)
** Current wind speed in m/s (hover to see current wind gust speed)